Jacksonville, IL

9:22 AM CDT on October 22, 2017 (GMT -0500)
Jacksonville Municipal

Weather History for KIJX - April, 2013

Change the Weather History Date:

Tuesday, April 2, 2013

  Actual Average (KSPI) Record (KSPI)
Temperature  
Mean Temperature 36 °F -  
Max Temperature 49 °F 57 °F 87 °F (1981)
Min Temperature 24 °F 37 °F 21 °F (1961)
Degree Days  
Heating Degree Days 28    
Moisture  
Dew Point 20 °F    
Average Humidity 53    
Maximum Humidity 81    
Minimum Humidity 26    
Precipitation  
Precipitation 0.00 in - - ()
Sea Level Pressure  
Sea Level Pressure 30.30 in    
Wind  
Wind Speed 6 mph (NW)    
Max Wind Speed 15 mph    
Max Gust Speed 21 mph    
Visibility 10 miles    
Events      
Averages and records for this station are not official NWS values.
T = Trace of Precipitation, MM = Missing Value Source: NWS Daily Summary

Daily Weather History Graph

Daily Weather History Graph

Search for Another Location

Airport or City:

Trip Planner

Search our weather history database for the weather conditions in past years. The results will help you decide how hot, cold, wet, or windy it might be!

Date:

Astronomy

Apr. 02, 2013 Rise Set
Actual Time 6:43 AM CDT 7:26 PM CDT
Civil Twilight 6:15 AM CDT 7:53 PM CDT
Nautical Twilight 5:43 AM CDT 8:26 PM CDT
Astronomical Twilight 5:10 AM CDT 8:59 PM CDT
Moon 1:30 AM CDT (4/2) 11:34 AM CDT (4/2)
Length of Visible Light 13h 37m
Length of Day
12h 43m
Waning Gibbous, 55% of the Moon is Illuminated
Apr 2
Waning Gibbous
Apr 2
Last Quarter
Apr 10
New
Apr 18
First Quarter
Apr 25
Full

Hourly Weather History & Observations

Time (CDT) Temp. Windchill Dew Point Humidity Pressure Visibility Wind Dir Wind Speed Gust Speed Precip Events Conditions
12:15 AM 31.8 °F 24.6 °F 22.1 °F 67% 30.26 in 10.0 mi NNW 8.1 mph - N/A   Clear
12:35 AM 31.3 °F 24.7 °F 22.1 °F 69% 30.26 in 10.0 mi NNW 6.9 mph - N/A   Clear
12:55 AM 31.6 °F 24.4 °F 21.9 °F 67% 30.27 in 10.0 mi NNW 8.1 mph - N/A   Clear
1:15 AM 31.8 °F 25.4 °F 21.7 °F 66% 30.27 in 10.0 mi North 6.9 mph - N/A   Clear
1:35 AM 31.6 °F 26.0 °F 21.9 °F 67% 30.27 in 10.0 mi NNW 5.8 mph - N/A   Clear
1:55 AM 30.9 °F 26.2 °F 21.6 °F 68% 30.28 in 10.0 mi NNW 4.6 mph - N/A   Clear
2:15 AM 29.3 °F - 21.2 °F 72% 30.28 in 10.0 mi Calm Calm - N/A   Clear
2:35 AM 29.5 °F 24.5 °F 21.2 °F 71% 30.28 in 10.0 mi NW 4.6 mph - N/A   Clear
2:55 AM 28.0 °F 21.7 °F 21.0 °F 75% 30.28 in 10.0 mi NNW 5.8 mph - N/A   Clear
3:15 AM 28.8 °F 22.6 °F 21.2 °F 73% 30.28 in 10.0 mi NNW 5.8 mph - N/A   Clear
3:35 AM 27.1 °F 20.7 °F 20.5 °F 76% 30.28 in 10.0 mi NNW 5.8 mph - N/A   Clear
3:55 AM 27.1 °F 20.7 °F 20.3 °F 75% 30.28 in 10.0 mi NNW 5.8 mph - N/A   Clear
4:15 AM 27.5 °F 21.1 °F 20.3 °F 74% 30.29 in 10.0 mi NNW 5.8 mph - N/A   Clear
4:35 AM 27.5 °F 20.2 °F 20.3 °F 74% 30.28 in 10.0 mi North 6.9 mph - N/A   Clear
4:55 AM 27.7 °F - 20.7 °F 75% 30.29 in 10.0 mi Calm Calm - N/A   Clear
5:15 AM 25.5 °F - 19.4 °F 78% 30.29 in 10.0 mi Calm Calm - N/A   Clear
5:35 AM 26.1 °F - 20.1 °F 78% 30.30 in 10.0 mi Calm Calm - N/A   Clear
5:55 AM 24.4 °F 20.1 °F 19.4 °F 81% 30.30 in 10.0 mi WNW 3.5 mph - N/A   Clear
6:15 AM 25.7 °F 20.1 °F 20.1 °F 79% 30.30 in 10.0 mi WNW 4.6 mph - N/A   Clear
6:35 AM 26.1 °F 21.9 °F 20.7 °F 80% 30.31 in 10.0 mi West 3.5 mph - N/A   Clear
6:55 AM 25.9 °F 21.7 °F 20.7 °F 81% 30.32 in 10.0 mi West 3.5 mph - N/A   Clear
7:15 AM 27.3 °F - 21.7 °F 80% 30.33 in 10.0 mi Calm Calm - N/A   Clear
7:35 AM 29.5 °F 25.9 °F 23.0 °F 77% 30.33 in 10.0 mi WSW 3.5 mph - N/A   Clear
7:55 AM 30.7 °F - 23.5 °F 75% 30.34 in 10.0 mi Calm Calm - N/A   Clear
8:15 AM 31.6 °F 28.3 °F 23.7 °F 73% 30.34 in 10.0 mi NW 3.5 mph - N/A   Clear
8:35 AM 32.2 °F 27.7 °F 23.4 °F 70% 30.35 in 10.0 mi NW 4.6 mph - N/A   Clear
8:55 AM 33.4 °F 29.1 °F 22.3 °F 64% 30.35 in 10.0 mi NNW 4.6 mph - N/A   Clear
9:15 AM 34.3 °F - 21.9 °F 60% 30.36 in 10.0 mi Calm Calm - N/A   Clear
9:35 AM 35.6 °F - 21.4 °F 56% 30.36 in 10.0 mi Calm Calm - N/A   Clear
9:55 AM 36.1 °F 33.5 °F 17.2 °F 46% 30.36 in 10.0 mi North 3.5 mph - N/A   Clear
10:15 AM 37.8 °F - 19.4 °F 48% 30.36 in 10.0 mi Calm Calm - N/A   Clear
10:35 AM 38.3 °F - 19.4 °F 47% 30.36 in 10.0 mi Calm Calm - N/A   Clear
10:55 AM 38.3 °F - 18.3 °F 45% 30.35 in 10.0 mi Calm Calm - N/A   Clear
11:15 AM 39.0 °F - 18.3 °F 43% 30.35 in 10.0 mi Calm Calm - N/A   Clear
11:35 AM 41.4 °F 36.8 °F 18.7 °F 40% 30.35 in 10.0 mi WNW 6.9 mph - N/A   Clear
11:55 AM 42.1 °F 38.4 °F 18.7 °F 39% 30.34 in 10.0 mi NW 5.8 mph - N/A   Clear
12:15 PM 42.3 °F 36.3 °F 19.2 °F 40% 30.33 in 10.0 mi NW 10.4 mph - N/A   Clear
12:35 PM 43.0 °F 41.3 °F 18.5 °F 37% 30.33 in 10.0 mi NW 3.5 mph - N/A   Clear
12:55 PM 43.7 °F 42.1 °F 16.2 °F 33% 30.32 in 10.0 mi North 3.5 mph - N/A   Clear
1:15 PM 44.8 °F 39.9 °F 18.1 °F 34% 30.31 in 10.0 mi WNW 9.2 mph - N/A   Clear
1:35 PM 44.8 °F - 16.0 °F 31% 30.31 in 10.0 mi Calm Calm - N/A   Clear
1:55 PM 46.2 °F 42.7 °F 16.2 °F 30% 30.30 in 10.0 mi NW 6.9 mph - N/A   Clear
2:15 PM 47.3 °F - 17.1 °F 30% 30.30 in 10.0 mi NW 11.5 mph 17.3 mph N/A   Clear
2:35 PM 47.5 °F - 18.0 °F 31% 30.29 in 10.0 mi NW 8.1 mph 18.4 mph N/A   Clear
2:55 PM 48.0 °F - 18.1 °F 31% 30.29 in 10.0 mi West 9.2 mph 17.3 mph N/A   Clear
3:15 PM 48.9 °F - 18.9 °F 30% 30.28 in 10.0 mi NW 15.0 mph - N/A   Clear
3:35 PM 48.9 °F - 17.2 °F 28% 30.28 in 10.0 mi WNW 8.1 mph 20.7 mph N/A   Clear
3:55 PM 49.6 °F - 17.6 °F 28% 30.27 in 10.0 mi NW 11.5 mph 16.1 mph N/A   Clear
4:15 PM 48.7 °F - 15.1 °F 26% 30.27 in 10.0 mi WNW 4.6 mph - N/A   Clear
4:35 PM 49.3 °F - 18.3 °F 29% 30.27 in 10.0 mi NW 10.4 mph - N/A   Clear
4:55 PM 49.3 °F - 16.5 °F 27% 30.26 in 10.0 mi WNW 9.2 mph 16.1 mph N/A   Clear
5:15 PM 49.1 °F - 15.6 °F 26% 30.26 in 10.0 mi WNW 8.1 mph - N/A   Clear
5:35 PM 49.5 °F - 16.3 °F 27% 30.27 in 10.0 mi NW 10.4 mph - N/A   Clear
5:55 PM 49.1 °F - 17.8 °F 29% 30.27 in 10.0 mi WNW 10.4 mph - N/A   Clear
6:15 PM 48.2 °F - 16.3 °F 28% 30.27 in 10.0 mi WNW 9.2 mph - N/A   Clear
6:35 PM 47.5 °F - 18.1 °F 31% 30.28 in 10.0 mi NW 9.2 mph - N/A   Clear
6:55 PM 45.9 °F 41.2 °F 18.0 °F 33% 30.28 in 10.0 mi WNW 9.2 mph - N/A   Clear
7:15 PM 43.9 °F 39.9 °F 19.2 °F 37% 30.29 in 10.0 mi NW 6.9 mph - N/A   Clear
7:35 PM 42.6 °F 39.0 °F 18.9 °F 39% 30.29 in 10.0 mi WNW 5.8 mph - N/A   Clear
7:55 PM 39.6 °F 35.4 °F 20.3 °F 46% 30.29 in 10.0 mi WNW 5.8 mph - N/A   Clear
8:15 PM 37.4 °F 32.8 °F 21.9 °F 54% 30.29 in 10.0 mi WNW 5.8 mph - N/A   Clear
8:35 PM 37.6 °F 34.0 °F 20.5 °F 50% 30.30 in 10.0 mi WNW 4.6 mph - N/A   Clear
8:55 PM 36.1 °F 33.5 °F 21.0 °F 54% 30.30 in 10.0 mi NW 3.5 mph - N/A   Clear
9:15 PM 37.8 °F 34.2 °F 20.3 °F 49% 30.30 in 10.0 mi NW 4.6 mph - N/A   Clear
9:35 PM 38.3 °F 33.9 °F 19.8 °F 47% 30.32 in 10.0 mi NNW 5.8 mph - N/A   Clear
9:55 PM 36.0 °F 31.1 °F 20.7 °F 54% 30.32 in 10.0 mi NNW 5.8 mph - N/A   Clear
10:15 PM 37.0 °F 33.3 °F 21.0 °F 52% 30.32 in 10.0 mi NNW 4.6 mph - N/A   Clear
10:35 PM 36.5 °F 31.0 °F 21.0 °F 54% 30.32 in 10.0 mi North 6.9 mph - N/A   Clear
10:55 PM 36.7 °F 29.9 °F 23.5 °F 59% 30.33 in 10.0 mi North 9.2 mph - N/A   Clear
11:35 PM 33.6 °F 28.4 °F 23.0 °F 65% 30.33 in 10.0 mi North 5.8 mph - N/A   Clear
11:55 PM 33.8 °F 28.6 °F 22.8 °F 64% 30.33 in 10.0 mi North 5.8 mph - N/A   Clear